TimeAKST,TemperatureF,Dew PointF,Humidity,Sea Level PressureIn,VisibilityMPH,Wind Direction,Wind SpeedMPH,Gust SpeedMPH,PrecipitationIn,Events,Conditions,WindDirDegrees,DateUTC
12:53 AM,28.9,26.1,89,30.27,10.0,East,5.8,-,N/A,,Clear,100,2012-11-09 09:53:00
1:53 AM,28.9,28.9,100,30.27,10.0,Calm,Calm,-,N/A,,Clear,0,2012-11-09 10:53:00
3:53 AM,28.0,26.1,92,30.25,10.0,Calm,Calm,-,N/A,,Clear,0,2012-11-09 12:53:00
4:53 AM,28.0,26.1,92,30.24,10.0,East,4.6,-,N/A,,Clear,90,2012-11-09 13:53:00
5:53 AM,28.0,26.1,92,30.23,10.0,Calm,Calm,-,N/A,,Clear,0,2012-11-09 14:53:00
6:53 AM,26.1,25.0,96,30.21,10.0,ESE,3.5,-,N/A,,Clear,110,2012-11-09 15:53:00
7:53 AM,27.0,24.1,89,30.22,10.0,Calm,Calm,-,N/A,,Clear,0,2012-11-09 16:53:00
8:53 AM,28.9,27.0,92,30.22,10.0,East,3.5,-,N/A,,Clear,100,2012-11-09 17:53:00
9:53 AM,30.9,27.0,85,30.21,10.0,East,3.5,-,N/A,,Clear,100,2012-11-09 18:53:00
10:53 AM,34.0,28.0,79,30.21,10.0,Calm,Calm,-,N/A,,Clear,0,2012-11-09 19:53:00
11:53 AM,35.1,28.9,78,30.22,10.0,Calm,Calm,-,N/A,,Clear,0,2012-11-09 20:53:00
12:53 PM,36.0,30.0,79,30.20,10.0,Calm,Calm,-,N/A,,Clear,0,2012-11-09 21:53:00
1:53 PM,36.0,28.0,73,30.18,10.0,Calm,Calm,-,N/A,,Clear,0,2012-11-09 22:53:00
2:53 PM,35.1,28.0,76,30.16,10.0,Calm,Calm,-,N/A,,Mostly Cloudy,0,2012-11-09 23:53:00
3:53 PM,33.1,28.0,82,30.14,10.0,Calm,Calm,-,N/A,,Mostly Cloudy,0,2012-11-10 00:53:00
4:53 PM,32.0,27.0,82,30.12,10.0,Calm,Calm,-,N/A,,Scattered Clouds,0,2012-11-10 01:53:00
5:53 PM,32.0,27.0,82,30.11,10.0,East,4.6,-,N/A,,Clear,100,2012-11-10 02:53:00
6:53 PM,30.9,27.0,85,30.10,10.0,East,4.6,-,N/A,,Clear,100,2012-11-10 03:53:00
7:53 PM,32.0,27.0,82,30.09,10.0,East,3.5,-,N/A,,Clear,80,2012-11-10 04:53:00
8:53 PM,32.0,27.0,82,30.07,10.0,Calm,Calm,-,N/A,,Clear,0,2012-11-10 05:53:00
9:53 PM,32.0,27.0,82,30.05,10.0,Calm,Calm,-,N/A,,Mostly Cloudy,0,2012-11-10 06:53:00
10:53 PM,33.1,28.0,82,30.03,10.0,Calm,Calm,-,N/A,,Overcast,0,2012-11-10 07:53:00
11:53 PM,32.0,28.9,88,30.02,10.0,Calm,Calm,-,N/A,,Mostly Cloudy,0,2012-11-10 08:53:00